Date,TemperatureHighF,TemperatureAvgF,TemperatureLowF,DewpointHighF,DewpointAvgF,DewpointLowF,HumidityHigh,HumidityAvg,HumidityLow,PressureMaxIn,PressureMinIn,WindSpeedMaxMPH,WindSpeedAvgMPH,GustSpeedMaxMPH,PrecipitationSumIn
2013-4-1,76,68,59,64,60,55,95,77,54,30.04,29.91,10,2,12,0.00
2013-4-2,73,65,53,64,57,51,95,77,47,30.12,30.01,10,3,13,0.00
2013-4-3,68,63,57,64,60,55,96,91,83,30.06,29.79,16,3,28,1.33
2013-4-4,71,64,59,63,60,55,95,87,73,29.95,29.85,14,3,17,0.00
2013-4-5,67,58,52,55,51,49,90,78,57,30.10,29.91,10,4,15,0.00
2013-4-6,69,60,50,58,52,46,91,76,58,30.17,30.08,9,2,15,0.00
2013-4-7,72,65,53,66,62,52,95,88,78,30.14,30.02,11,3,14,0.00
2013-4-8,75,71,68,69,67,65,95,88,78,30.09,29.98,14,6,18,0.00
2013-4-9,75,72,70,70,68,67,94,89,79,30.10,29.96,13,6,19,0.00
2013-4-10,77,72,69,71,69,66,94,89,82,30.04,29.89,13,6,17,0.00
2013-4-11,77,72,62,73,70,61,96,93,87,29.89,29.61,14,5,24,1.03
2013-4-12,75,64,56,61,53,48,96,70,41,29.97,29.76,9,3,16,0.00
2013-4-13,74,66,53,60,54,48,86,66,40,30.04,29.89,11,2,14,0.00
2013-4-14,70,67,59,67,63,57,96,87,74,29.93,29.72,17,5,30,0.73
2013-4-15,73,70,67,70,68,66,96,93,87,30.03,29.83,10,4,15,0.01
2013-4-16,76,73,70,70,70,69,95,89,81,30.12,30.02,10,4,14,0.00
2013-4-17,76,73,70,72,70,69,96,91,84,30.12,30.00,12,4,16,0.00
2013-4-18,78,73,70,73,71,68,95,91,86,30.00,29.87,12,6,18,0.00
2013-4-19,74,61,51,73,58,49,96,90,75,30.16,29.82,14,4,20,0.12
2013-4-20,69,58,46,49,44,39,92,63,39,30.24,30.11,12,2,15,0.00
2013-4-21,70,61,50,56,51,44,87,70,55,30.20,30.11,12,3,18,0.00
2013-4-22,71,67,58,64,60,49,87,79,65,30.14,30.05,13,5,15,0.00
2013-4-23,72,70,68,66,64,62,90,83,77,30.13,30.05,18,6,18,0.00
2013-4-24,75,70,64,70,67,62,96,91,83,30.13,30.03,8,2,15,0.08
2013-4-25,79,68,59,67,61,52,97,79,59,30.25,30.11,8,2,13,0.01
2013-4-26,75,67,58,64,54,46,85,63,41,30.29,30.20,12,3,18,0.00
2013-4-27,76,70,60,71,67,58,96,89,78,30.20,30.06,13,3,16,0.00
2013-4-28,78,73,69,72,70,66,97,90,78,30.09,29.95,6,2,11,0.00
2013-4-29,80,73,68,71,68,65,94,84,66,29.98,29.89,10,2,12,0.00
2013-4-30,76,73,70,71,70,68,94,89,84,29.96,29.89,10,5,17,0.01